| time (UTC) | temp C | wind direction | speed KPH | gust KPH | rain 1hr cm | rain 24hr cm | rain mn cm | humidity % | barometer mb |
| 20260906152726 | 26 | 65 | 1.6 | 3.2 | 0.00 | 0.00 | 0.00 | 81 | 1014.3 |
| 20260906152221 | 25 | 115 | 3.2 | 3.2 | 0.00 | 0.00 | 0.00 | 82 | 1014.4 |
| 20260906151715 | 25 | 41 | 3.2 | 3.2 | 0.00 | 0.00 | 0.00 | 83 | 1014.4 |
| 20260906151211 | 25 | 57 | 6.4 | 8.0 | 0.00 | 0.00 | 0.00 | 84 | 1014.5 |
| 20260906150707 | 24 | 44 | 3.2 | 3.2 | 0.00 | 0.00 | 0.00 | 85 | 1014.1 |
| 20260906150202 | 23 | 33 | 3.2 | 3.2 | 0.00 | 0.00 | 0.00 | 85 | 1014.8 |
| 20260906145701 | 23 | 77 | 3.2 | 3.2 | 0.00 | 0.00 | 0.00 | 86 | 1014.6 |
| 20260906145200 | 23 | 56 | 1.6 | 3.2 | 0.00 | 0.00 | 0.00 | 87 | 1014.6 |
| 20260906144700 | 23 | 13 | 4.8 | 4.8 | 0.00 | 0.00 | 0.00 | 87 | 1014.6 |
| 20260906144155 | 22 | 306 | 3.2 | 3.2 | 0.00 | 0.00 | 0.00 | 88 | 1014.8 |
| 20260906143649 | 22 | 31 | 4.8 | 4.8 | 0.00 | 0.00 | 0.00 | 89 | 1014.8 |
| 20260906143147 | 22 | 296 | 6.4 | 8.0 | 0.00 | 0.00 | 0.00 | 89 | 1015.1 |
| 20260906142646 | 22 | 56 | 1.6 | 1.6 | 0.00 | 0.00 | 0.00 | 90 | 1014.9 |
| 20260906142141 | 22 | 100 | 0.0 | 0.0 | 0.00 | 0.00 | 0.00 | 90 | 1015.0 |
| 20260906141640 | 22 | 45 | 1.6 | 1.6 | 0.00 | 0.00 | 0.00 | 90 | 1015.2 |
| 20260906141135 | 22 | 218 | 3.2 | 3.2 | 0.00 | 0.00 | 0.00 | 90 | 1015.5 |
| 20260906140634 | 22 | 53 | 1.6 | 1.6 | 0.00 | 0.00 | 0.00 | 89 | 1015.0 |
| 20260906140129 | 22 | 222 | 4.8 | 4.8 | 0.00 | 0.00 | 0.00 | 89 | 1015.4 |
| 20260906135626 | 22 | 120 | 1.6 | 1.6 | 0.00 | 0.00 | 0.00 | 88 | 1014.8 |
| 20260906135122 | 22 | 251 | 6.4 | 8.0 | 0.00 | 0.00 | 0.00 | 88 | 1015.1 |
| 20260906134618 | 22 | 141 | 1.6 | 3.2 | 0.00 | 0.00 | 0.00 | 89 | 1014.9 |
| 20260906134113 | 21 | 68 | 3.2 | 3.2 | 0.00 | 0.00 | 0.00 | 91 | 1014.5 |
| 20260906133609 | 21 | 59 | 4.8 | 4.8 | 0.00 | 0.00 | 0.00 | 92 | 1014.3 |
| 20260906133103 | 20 | 48 | 3.2 | 3.2 | 0.00 | 0.00 | 0.00 | 92 | 1014.4 |
| 20260906132558 | 20 | 279 | 3.2 | 3.2 | 0.00 | 0.00 | 0.00 | 92 | 1014.6 |
| 20260906132054 | 20 | 124 | 1.6 | 1.6 | 0.00 | 0.00 | 0.00 | 92 | 1014.6 |
| 20260906131549 | 20 | 79 | 8.0 | 9.7 | 0.00 | 0.00 | 0.00 | 92 | 1014.5 |
| 20260906131044 | 20 | 74 | 9.7 | 11.3 | 0.00 | 0.00 | 0.00 | 92 | 1014.1 |
| 20260906130544 | 20 | 70 | 12.9 | 14.5 | 0.00 | 0.00 | 0.00 | 92 | 1014.1 |
| 20260906130039 | 20 | 81 | 8.0 | 12.9 | 0.00 | 0.00 | 0.00 | 92 | 1014.4 |
| 20260906125536 | 20 | 79 | 4.8 | 4.8 | 0.00 | 0.00 | 0.00 | 92 | 1014.6 |
| 20260906125031 | 20 | 58 | 4.8 | 4.8 | 0.00 | 0.00 | 0.00 | 92 | 1014.5 |
| 20260906124526 | 20 | 222 | 4.8 | 4.8 | 0.00 | 0.00 | 0.00 | 92 | 1015.2 |
| 20260906124021 | 20 | 77 | 3.2 | 4.8 | 0.00 | 0.00 | 0.00 | 92 | 1014.5 |
| 20260906123520 | 20 | 108 | 3.2 | 3.2 | 0.00 | 0.00 | 0.00 | 92 | 1014.9 |
| 20260906123015 | 20 | 45 | 1.6 | 1.6 | 0.00 | 0.00 | 0.00 | 92 | 1014.6 |
| 20260906122509 | 20 | 10 | 4.8 | 4.8 | 0.00 | 0.00 | 0.00 | 91 | 1014.9 |
| 20260906122006 | 20 | 194 | 1.6 | 1.6 | 0.00 | 0.00 | 0.00 | 91 | 1014.9 |
| 20260906121502 | 20 | 98 | 6.4 | 9.7 | 0.00 | 0.00 | 0.00 | 91 | 1014.8 |
| 20260906120958 | 20 | 123 | 11.3 | 12.9 | 0.00 | 0.00 | 0.00 | 91 | 1014.6 |
| 20260906120453 | 20 | 114 | 8.0 | 9.7 | 0.00 | 0.00 | 0.00 | 91 | 1014.6 |
| 20260906115949 | 20 | 105 | 6.4 | 8.0 | 0.00 | 0.00 | 0.00 | 91 | 1015.0 |
| 20260906115444 | 20 | 92 | 6.4 | 8.0 | 0.00 | 0.00 | 0.00 | 91 | 1014.9 |
| 20260906114944 | 20 | 105 | 4.8 | 4.8 | 0.00 | 0.00 | 0.00 | 91 | 1014.5 |
| 20260906114439 | 20 | 95 | 8.0 | 9.7 | 0.00 | 0.00 | 0.00 | 91 | 1014.8 |
| 20260906113935 | 20 | 117 | 8.0 | 9.7 | 0.00 | 0.00 | 0.00 | 91 | 1014.5 |
| 20260906113433 | 20 | 121 | 8.0 | 9.7 | 0.00 | 0.00 | 0.00 | 91 | 1014.4 |
| 20260906112929 | 20 | 88 | 11.3 | 12.9 | 0.00 | 0.00 | 0.00 | 92 | 1014.4 |
| 20260906112424 | 20 | 138 | 8.0 | 12.9 | 0.00 | 0.00 | 0.00 | 92 | 1014.5 |
| 20260906111920 | 20 | 110 | 8.0 | 11.3 | 0.00 | 0.00 | 0.00 | 92 | 1014.5 |
| 20260906111420 | 20 | 89 | 8.0 | 9.7 | 0.00 | 0.00 | 0.00 | 92 | 1014.5 |
| 20260906110914 | 20 | 114 | 8.0 | 9.7 | 0.00 | 0.00 | 0.00 | 92 | 1014.8 |
| 20260906110410 | 20 | 111 | 9.7 | 11.3 | 0.00 | 0.00 | 0.00 | 92 | 1014.5 |
| 20260906105909 | 20 | 115 | 8.0 | 9.7 | 0.00 | 0.00 | 0.00 | 92 | 1014.6 |
| 20260906105405 | 20 | 92 | 8.0 | 9.7 | 0.00 | 0.00 | 0.00 | 92 | 1014.5 |
| 20260906104901 | 20 | 114 | 8.0 | 9.7 | 0.00 | 0.00 | 0.00 | 92 | 1014.6 |
| 20260906104359 | 20 | 119 | 8.0 | 11.3 | 0.00 | 0.00 | 0.00 | 92 | 1014.6 |
| 20260906103858 | 20 | 113 | 8.0 | 11.3 | 0.00 | 0.00 | 0.00 | 92 | 1014.9 |
| 20260906103356 | 20 | 136 | 9.7 | 11.3 | 0.00 | 0.00 | 0.00 | 92 | 1014.8 |
| 20260906102852 | 20 | 125 | 11.3 | 14.5 | 0.00 | 0.00 | 0.00 | 92 | 1014.6 |
| 20260906102351 | 20 | 95 | 11.3 | 12.9 | 0.00 | 0.00 | 0.00 | 92 | 1014.6 |
| 20260906101846 | 20 | 108 | 12.9 | 14.5 | 0.00 | 0.00 | 0.00 | 92 | 1014.5 |
| 20260906101342 | 20 | 103 | 11.3 | 12.9 | 0.00 | 0.00 | 0.00 | 92 | 1014.6 |
| 20260906100837 | 20 | 90 | 11.3 | 12.9 | 0.00 | 0.00 | 0.00 | 92 | 1014.5 |
| 20260906100336 | 20 | 85 | 9.7 | 11.3 | 0.00 | 0.00 | 0.00 | 92 | 1014.9 |
| 20260906095831 | 20 | 122 | 11.3 | 12.9 | 0.00 | 0.00 | 0.00 | 92 | 1014.8 |
| 20260906095327 | 20 | 134 | 11.3 | 12.9 | 0.00 | 0.00 | 0.00 | 92 | 1014.9 |
| 20260906094826 | 20 | 90 | 12.9 | 14.5 | 0.00 | 0.00 | 0.00 | 92 | 1014.9 |
| 20260906094321 | 20 | 134 | 8.0 | 9.7 | 0.00 | 0.00 | 0.00 | 92 | 1014.6 |
| 20260906093817 | 20 | 112 | 12.9 | 14.5 | 0.00 | 0.00 | 0.00 | 92 | 1014.8 |
| 20260906093313 | 20 | 102 | 11.3 | 14.5 | 0.00 | 0.00 | 0.00 | 92 | 1014.8 |
| 20260906092808 | 20 | 91 | 11.3 | 12.9 | 0.00 | 0.00 | 0.00 | 92 | 1014.5 |
| 20260906092305 | 20 | 123 | 12.9 | 12.9 | 0.00 | 0.00 | 0.00 | 91 | 1014.6 |
| 20260906091758 | 20 | 127 | 9.7 | 9.7 | 0.00 | 0.00 | 0.00 | 91 | 1014.6 |
| 20260906091254 | 20 | 137 | 12.9 | 16.1 | 0.00 | 0.00 | 0.00 | 91 | 1014.6 |
| 20260906090750 | 20 | 114 | 9.7 | 12.9 | 0.00 | 0.00 | 0.00 | 91 | 1014.6 |
| 20260906090248 | 20 | 146 | 9.7 | 12.9 | 0.00 | 0.00 | 0.00 | 91 | 1014.6 |
| 20260906085748 | 20 | 137 | 14.5 | 17.7 | 0.00 | 0.00 | 0.00 | 92 | 1014.6 |
| 20260906085242 | 20 | 88 | 8.0 | 11.3 | 0.00 | 0.00 | 0.00 | 92 | 1014.8 |
| 20260906084737 | 20 | 119 | 8.0 | 9.7 | 0.00 | 0.00 | 0.00 | 92 | 1014.5 |
| 20260906084236 | 20 | 113 | 9.7 | 11.3 | 0.00 | 0.00 | 0.00 | 92 | 1014.8 |
| 20260906083732 | 20 | 94 | 11.3 | 11.3 | 0.00 | 0.00 | 0.00 | 92 | 1014.9 |
| 20260906083226 | 20 | 113 | 8.0 | 12.9 | 0.00 | 0.00 | 0.00 | 92 | 1014.8 |
| 20260906082721 | 20 | 87 | 9.7 | 12.9 | 0.00 | 0.00 | 0.00 | 92 | 1014.6 |
| 20260906082211 | 20 | 93 | 9.7 | 11.3 | 0.00 | 0.00 | 0.00 | 91 | 1014.8 |
| 20260906081707 | 20 | 93 | 11.3 | 14.5 | 0.00 | 0.00 | 0.00 | 91 | 1015.0 |
| 20260906081202 | 20 | 90 | 9.7 | 12.9 | 0.00 | 0.00 | 0.00 | 91 | 1014.5 |
| 20260906080659 | 20 | 69 | 14.5 | 16.1 | 0.00 | 0.00 | 0.00 | 92 | 1014.5 |
| 20260906080154 | 20 | 76 | 11.3 | 12.9 | 0.00 | 0.00 | 0.00 | 92 | 1014.6 |
| 20260906075654 | 20 | 83 | 11.3 | 14.5 | 0.00 | 0.00 | 0.00 | 92 | 1014.6 |
| 20260906075143 | 20 | 73 | 8.0 | 11.3 | 0.00 | 0.00 | 0.00 | 92 | 1014.2 |
| 20260906074638 | 20 | 91 | 4.8 | 9.7 | 0.00 | 0.00 | 0.00 | 91 | 1014.5 |
| 20260906074137 | 20 | 45 | 11.3 | 16.1 | 0.00 | 0.00 | 0.00 | 91 | 1014.5 |
| 20260906073632 | 20 | 71 | 12.9 | 14.5 | 0.00 | 0.00 | 0.00 | 91 | 1014.8 |
| 20260906073128 | 20 | 81 | 14.5 | 16.1 | 0.00 | 0.00 | 0.00 | 91 | 1014.6 |
| 20260906072623 | 20 | 77 | 11.3 | 14.5 | 0.00 | 0.00 | 0.00 | 91 | 1014.5 |
| 20260906072119 | 20 | 79 | 8.0 | 9.7 | 0.00 | 0.00 | 0.00 | 91 | 1014.6 |
| 20260906071615 | 20 | 98 | 12.9 | 16.1 | 0.00 | 0.00 | 0.00 | 91 | 1014.6 |
| 20260906071115 | 20 | 66 | 11.3 | 12.9 | 0.00 | 0.00 | 0.00 | 91 | 1014.5 |
| 20260906070611 | 20 | 87 | 14.5 | 17.7 | 0.00 | 0.00 | 0.00 | 91 | 1014.8 |
| 20260906070106 | 20 | 76 | 9.7 | 11.3 | 0.00 | 0.00 | 0.00 | 90 | 1014.9 |
| 20260906065606 | 20 | 88 | 11.3 | 14.5 | 0.00 | 0.00 | 0.00 | 90 | 1014.8 |
| 20260906065101 | 21 | 82 | 14.5 | 14.5 | 0.00 | 0.00 | 0.00 | 90 | 1014.8 |
| 20260906064557 | 21 | 87 | 4.8 | 4.8 | 0.00 | 0.00 | 0.00 | 90 | 1014.6 |
| 20260906064052 | 20 | 97 | 8.0 | 11.3 | 0.00 | 0.00 | 0.00 | 90 | 1015.1 |
| 20260906063547 | 20 | 117 | 11.3 | 12.9 | 0.00 | 0.00 | 0.00 | 90 | 1015.0 |
| 20260906063043 | 20 | 132 | 12.9 | 14.5 | 0.00 | 0.00 | 0.00 | 90 | 1015.0 |
| 20260906062539 | 21 | 94 | 12.9 | 16.1 | 0.00 | 0.00 | 0.00 | 90 | 1014.6 |
| 20260906062032 | 21 | 99 | 11.3 | 14.5 | 0.00 | 0.00 | 0.00 | 90 | 1014.5 |
| 20260906061529 | 21 | 80 | 11.3 | 12.9 | 0.00 | 0.00 | 0.00 | 90 | 1014.6 |
| 20260906061028 | 21 | 96 | 11.3 | 14.5 | 0.00 | 0.00 | 0.00 | 90 | 1014.6 |
| 20260906060525 | 21 | 93 | 9.7 | 11.3 | 0.00 | 0.00 | 0.00 | 89 | 1015.0 |
| 20260906060022 | 21 | 88 | 8.0 | 9.7 | 0.00 | 0.00 | 0.00 | 89 | 1014.9 |
| 20260906055517 | 21 | 54 | 11.3 | 12.9 | 0.00 | 0.00 | 0.00 | 89 | 1015.0 |
| 20260906055013 | 21 | 85 | 6.4 | 9.7 | 0.00 | 0.00 | 0.00 | 89 | 1015.1 |
| 20260906054513 | 21 | 96 | 11.3 | 12.9 | 0.00 | 0.00 | 0.00 | 89 | 1014.9 |
| 20260906054008 | 21 | 99 | 11.3 | 12.9 | 0.00 | 0.00 | 0.00 | 88 | 1015.1 |
| 20260906053504 | 21 | 92 | 8.0 | 11.3 | 0.00 | 0.00 | 0.00 | 88 | 1014.9 |
| 20260906053000 | 21 | 90 | 6.4 | 8.0 | 0.00 | 0.00 | 0.00 | 88 | 1014.9 |
| 20260906052455 | 21 | 88 | 11.3 | 16.1 | 0.00 | 0.00 | 0.00 | 87 | 1015.0 |
| 20260906051952 | 21 | 56 | 12.9 | 14.5 | 0.00 | 0.00 | 0.00 | 87 | 1014.8 |
| 20260906051447 | 21 | 93 | 11.3 | 14.5 | 0.00 | 0.00 | 0.00 | 87 | 1014.9 |
| 20260906050943 | 22 | 98 | 14.5 | 16.1 | 0.00 | 0.00 | 0.00 | 87 | 1014.5 |
| 20260906050442 | 21 | 93 | 12.9 | 16.1 | 0.00 | 0.00 | 0.00 | 87 | 1014.2 |
| 20260906045942 | 21 | 105 | 11.3 | 14.5 | 0.00 | 0.00 | 0.00 | 87 | 1014.6 |
| 20260906045441 | 22 | 76 | 11.3 | 12.9 | 0.00 | 0.00 | 0.00 | 86 | 1014.6 |
| 20260906044937 | 22 | 88 | 8.0 | 9.7 | 0.00 | 0.00 | 0.00 | 86 | 1014.9 |
| 20260906044432 | 22 | 66 | 9.7 | 11.3 | 0.00 | 0.00 | 0.00 | 85 | 1014.8 |
| 20260906043928 | 22 | 89 | 12.9 | 16.1 | 0.00 | 0.00 | 0.00 | 85 | 1014.8 |
| 20260906043423 | 22 | 108 | 16.1 | 22.5 | 0.00 | 0.00 | 0.00 | 85 | 1014.5 |
| 20260906042919 | 22 | 68 | 17.7 | 25.7 | 0.00 | 0.00 | 0.00 | 85 | 1014.4 |
| 20260906042418 | 22 | 72 | 11.3 | 16.1 | 0.00 | 0.00 | 0.00 | 85 | 1014.8 |
| 20260906041913 | 22 | 88 | 11.3 | 14.5 | 0.00 | 0.00 | 0.00 | 85 | 1014.5 |
| 20260906041409 | 22 | 101 | 11.3 | 12.9 | 0.00 | 0.00 | 0.00 | 84 | 1014.9 |
| 20260906040909 | 22 | 83 | 12.9 | 17.7 | 0.00 | 0.00 | 0.00 | 84 | 1014.9 |
| 20260906040404 | 22 | 73 | 9.7 | 11.3 | 0.00 | 0.00 | 0.00 | 84 | 1014.8 |
| 20260906035859 | 22 | 78 | 11.3 | 12.9 | 0.00 | 0.00 | 0.00 | 84 | 1015.1 |
| 20260906035355 | 22 | 78 | 8.0 | 9.7 | 0.00 | 0.00 | 0.00 | 84 | 1014.4 |
| 20260906034849 | 22 | 96 | 14.5 | 16.1 | 0.00 | 0.00 | 0.00 | 83 | 1014.8 |
| 20260906034344 | 22 | 66 | 9.7 | 14.5 | 0.00 | 0.00 | 0.00 | 83 | 1014.4 |
| 20260906033841 | 23 | 134 | 12.9 | 17.7 | 0.00 | 0.00 | 0.00 | 82 | 1014.4 |
| 20260906033339 | 23 | 130 | 11.3 | 12.9 | 0.00 | 0.00 | 0.00 | 82 | 1014.4 |
| 20260906032836 | 23 | 79 | 11.3 | 14.5 | 0.00 | 0.00 | 0.00 | 82 | 1014.1 |
| 20260906032332 | 23 | 80 | 16.1 | 17.7 | 0.00 | 0.00 | 0.00 | 82 | 1014.1 |
| 20260906031827 | 23 | 68 | 11.3 | 14.5 | 0.00 | 0.00 | 0.00 | 82 | 1014.2 |
| 20260906031322 | 23 | 60 | 12.9 | 16.1 | 0.00 | 0.00 | 0.00 | 83 | 1014.3 |
| 20260906030821 | 23 | 92 | 14.5 | 20.9 | 0.00 | 0.00 | 0.00 | 83 | 1014.1 |
| 20260906030317 | 23 | 72 | 11.3 | 12.9 | 0.00 | 0.00 | 0.00 | 82 | 1014.1 |
| 20260906025817 | 23 | 63 | 11.3 | 12.9 | 0.00 | 0.00 | 0.00 | 82 | 1014.2 |
| 20260906025311 | 23 | 72 | 16.1 | 17.7 | 0.00 | 0.00 | 0.00 | 82 | 1014.2 |
| 20260906024810 | 23 | 70 | 11.3 | 14.5 | 0.00 | 0.00 | 0.00 | 82 | 1014.3 |
| 20260906024304 | 23 | 73 | 14.5 | 17.7 | 0.00 | 0.00 | 0.00 | 82 | 1014.3 |
| 20260906023800 | 23 | 87 | 11.3 | 14.5 | 0.00 | 0.00 | 0.00 | 82 | 1014.0 |
| 20260906023254 | 23 | 69 | 14.5 | 16.1 | 0.00 | 0.00 | 0.00 | 82 | 1014.1 |
| 20260906022750 | 23 | 76 | 11.3 | 14.5 | 0.00 | 0.00 | 0.00 | 82 | 1014.0 |
| 20260906022245 | 23 | 63 | 14.5 | 20.9 | 0.00 | 0.00 | 0.00 | 81 | 1013.8 |
| 20260906021742 | 23 | 72 | 9.7 | 14.5 | 0.00 | 0.00 | 0.00 | 80 | 1013.6 |
| 20260906021240 | 24 | 72 | 6.4 | 8.0 | 0.00 | 0.00 | 0.00 | 79 | 1013.9 |
| 20260906020735 | 24 | 91 | 4.8 | 8.0 | 0.00 | 0.00 | 0.00 | 78 | 1013.6 |
| 20260906020235 | 24 | 93 | 8.0 | 9.7 | 0.00 | 0.00 | 0.00 | 77 | 1013.6 |
| 20260906015730 | 24 | 96 | 8.0 | 9.7 | 0.00 | 0.00 | 0.00 | 76 | 1013.3 |
| 20260906015228 | 25 | 108 | 9.7 | 11.3 | 0.00 | 0.00 | 0.00 | 75 | 1013.7 |
| 20260906014723 | 25 | 81 | 9.7 | 9.7 | 0.00 | 0.00 | 0.00 | 74 | 1013.3 |
| 20260906014219 | 25 | 81 | 9.7 | 11.3 | 0.00 | 0.00 | 0.00 | 74 | 1013.4 |
| 20260906013715 | 25 | 102 | 12.9 | 14.5 | 0.00 | 0.00 | 0.00 | 73 | 1013.2 |
| 20260906013215 | 25 | 95 | 12.9 | 14.5 | 0.00 | 0.00 | 0.00 | 72 | 1013.2 |
| 20260906012710 | 25 | 106 | 11.3 | 14.5 | 0.00 | 0.00 | 0.00 | 72 | 1013.2 |
| 20260906012204 | 25 | 103 | 8.0 | 9.7 | 0.00 | 0.00 | 0.00 | 71 | 1013.0 |
| 20260906011659 | 25 | 99 | 11.3 | 12.9 | 0.00 | 0.00 | 0.00 | 71 | 1013.2 |
| 20260906011154 | 25 | 72 | 11.3 | 14.5 | 0.00 | 0.00 | 0.00 | 70 | 1013.1 |
| 20260906010650 | 26 | 86 | 9.7 | 11.3 | 0.00 | 0.00 | 0.00 | 70 | 1013.1 |
| 20260906010146 | 26 | 82 | 6.4 | 8.0 | 0.00 | 0.00 | 0.00 | 69 | 1013.2 |
| 20260906005645 | 26 | 85 | 8.0 | 9.7 | 0.00 | 0.00 | 0.00 | 68 | 1012.9 |
| 20260906005144 | 27 | 105 | 12.9 | 14.5 | 0.00 | 0.00 | 0.00 | 68 | 1013.2 |
| 20260906004644 | 27 | 94 | 9.7 | 11.3 | 0.00 | 0.00 | 0.00 | 66 | 1013.1 |
| 20260906004139 | 27 | 113 | 11.3 | 12.9 | 0.00 | 0.00 | 0.00 | 66 | 1013.2 |
| 20260906003634 | 27 | 80 | 8.0 | 9.7 | 0.00 | 0.00 | 0.00 | 66 | 1013.2 |
| 20260906003130 | 28 | 100 | 6.4 | 8.0 | 0.00 | 0.00 | 0.00 | 67 | 1013.2 |
| 20260906002624 | 28 | 102 | 8.0 | 14.5 | 0.00 | 0.00 | 0.00 | 68 | 1013.3 |
| 20260906002119 | 28 | 153 | 14.5 | 22.5 | 0.00 | 0.00 | 0.00 | 68 | 1013.5 |
| 20260906001614 | 28 | 112 | 12.9 | 16.1 | 0.00 | 0.00 | 0.00 | 68 | 1013.4 |
| 20260906001109 | 28 | 108 | 14.5 | 16.1 | 0.00 | 0.00 | 0.00 | 68 | 1013.7 |
| 20260906000605 | 28 | 88 | 17.7 | 22.5 | 0.00 | 0.00 | 0.00 | 68 | 1013.7 |
| 20260906000100 | 28 | 136 | 16.1 | 20.9 | 0.00 | 0.00 | 0.00 | 69 | 1013.6 |
| 20260905235559 | 28 | 75 | 12.9 | 17.7 | 0.00 | 0.00 | 0.00 | 70 | 1013.8 |
| 20260905235054 | 28 | 109 | 19.3 | 22.5 | 0.00 | 0.00 | 0.00 | 70 | 1013.7 |
| 20260905234550 | 28 | 135 | 11.3 | 14.5 | 0.00 | 0.00 | 0.00 | 69 | 1013.7 |
| 20260905234044 | 28 | 109 | 17.7 | 25.7 | 0.00 | 0.00 | 0.00 | 69 | 1013.7 |
| 20260905233539 | 28 | 128 | 14.5 | 17.7 | 0.00 | 0.00 | 0.00 | 69 | 1013.6 |
| 20260905233039 | 28 | 129 | 20.9 | 22.5 | 0.00 | 0.00 | 0.00 | 69 | 1013.7 |
| 20260905232534 | 29 | 65 | 22.5 | 29.0 | 0.00 | 0.00 | 0.00 | 67 | 1013.4 |
| 20260905232030 | 30 | 109 | 11.3 | 14.5 | 0.00 | 0.00 | 0.00 | 65 | 1013.3 |
| 20260905231525 | 31 | 66 | 19.3 | 27.4 | 0.00 | 0.00 | 0.00 | 58 | 1013.4 |
| 20260905231021 | 32 | 68 | 16.1 | 17.7 | 0.00 | 0.00 | 0.00 | 52 | 1013.0 |
| 20260905230520 | 32 | 108 | 14.5 | 16.1 | 0.00 | 0.00 | 0.00 | 52 | 1013.1 |
| 20260905230019 | 32 | 112 | 19.3 | 24.1 | 0.00 | 0.00 | 0.00 | 51 | 1012.9 |
| 20260905225514 | 32 | 110 | 9.7 | 11.3 | 0.00 | 0.00 | 0.00 | 52 | 1012.9 |
| 20260905225009 | 32 | 136 | 16.1 | 24.1 | 0.00 | 0.00 | 0.00 | 51 | 1012.9 |
| 20260905224504 | 32 | 120 | 11.3 | 12.9 | 0.00 | 0.00 | 0.00 | 51 | 1013.0 |
| 20260905224003 | 32 | 85 | 11.3 | 12.9 | 0.00 | 0.00 | 0.00 | 51 | 1012.3 |
| 20260905223501 | 32 | 95 | 16.1 | 20.9 | 0.00 | 0.00 | 0.00 | 51 | 1012.4 |
| 20260905222956 | 32 | 121 | 12.9 | 17.7 | 0.00 | 0.00 | 0.00 | 50 | 1012.1 |
| 20260905222456 | 32 | 168 | 16.1 | 22.5 | 0.00 | 0.00 | 0.00 | 50 | 1011.9 |
| 20260905221951 | 32 | 100 | 14.5 | 16.1 | 0.00 | 0.00 | 0.00 | 50 | 1011.9 |
| 20260905221448 | 33 | 119 | 17.7 | 20.9 | 0.00 | 0.00 | 0.00 | 49 | 1011.9 |
| 20260905220944 | 33 | 92 | 9.7 | 11.3 | 0.00 | 0.00 | 0.00 | 49 | 1011.9 |
| 20260905220440 | 33 | 121 | 9.7 | 11.3 | 0.00 | 0.00 | 0.00 | 48 | 1011.8 |
| 20260905215938 | 33 | 155 | 11.3 | 14.5 | 0.00 | 0.00 | 0.00 | 47 | 1012.0 |
| 20260905215434 | 33 | 74 | 12.9 | 16.1 | 0.00 | 0.00 | 0.00 | 47 | 1012.1 |
| 20260905214930 | 33 | 134 | 4.8 | 4.8 | 0.00 | 0.00 | 0.00 | 46 | 1012.5 |
| 20260905214425 | 33 | 81 | 16.1 | 17.7 | 0.00 | 0.00 | 0.00 | 48 | 1012.7 |
| 20260905213920 | 33 | 164 | 9.7 | 14.5 | 0.00 | 0.00 | 0.00 | 44 | 1012.7 |
| 20260905213416 | 33 | 154 | 11.3 | 12.9 | 0.00 | 0.00 | 0.00 | 44 | 1012.6 |
| 20260905212912 | 33 | 113 | 8.0 | 11.3 | 0.00 | 0.00 | 0.00 | 45 | 1012.5 |
| 20260905212406 | 33 | 105 | 16.1 | 17.7 | 0.00 | 0.00 | 0.00 | 44 | 1012.6 |
| 20260905211900 | 33 | 124 | 12.9 | 14.5 | 0.00 | 0.00 | 0.00 | 44 | 1012.6 |
| 20260905211356 | 33 | 120 | 8.0 | 9.7 | 0.00 | 0.00 | 0.00 | 45 | 1012.3 |
| 20260905210852 | 33 | 89 | 11.3 | 16.1 | 0.00 | 0.00 | 0.00 | 45 | 1012.6 |
| 20260905210351 | 33 | 92 | 8.0 | 9.7 | 0.00 | 0.00 | 0.00 | 44 | 1012.4 |
| 20260905205850 | 33 | 118 | 14.5 | 17.7 | 0.00 | 0.00 | 0.00 | 44 | 1012.5 |
| 20260905205345 | 33 | 102 | 16.1 | 17.7 | 0.00 | 0.00 | 0.00 | 45 | 1012.5 |
| 20260905204844 | 32 | 87 | 9.7 | 12.9 | 0.00 | 0.00 | 0.00 | 46 | 1012.4 |
| 20260905204341 | 33 | 122 | 11.3 | 14.5 | 0.00 | 0.00 | 0.00 | 46 | 1012.7 |
| 20260905203838 | 32 | 110 | 14.5 | 17.7 | 0.00 | 0.00 | 0.00 | 45 | 1012.5 |
| 20260905203335 | 32 | 132 | 6.4 | 8.0 | 0.00 | 0.00 | 0.00 | 46 | 1012.6 |
| 20260905202825 | 32 | 171 | 14.5 | 17.7 | 0.00 | 0.00 | 0.00 | 44 | 1012.4 |
| 20260905202319 | 33 | 141 | 17.7 | 22.5 | 0.00 | 0.00 | 0.00 | 45 | 1012.7 |
| 20260905201815 | 33 | 149 | 16.1 | 17.7 | 0.00 | 0.00 | 0.00 | 44 | 1012.7 |
| 20260905201311 | 33 | 107 | 9.7 | 12.9 | 0.00 | 0.00 | 0.00 | 45 | 1012.7 |
| 20260905200805 | 32 | 143 | 9.7 | 11.3 | 0.00 | 0.00 | 0.00 | 45 | 1013.0 |
| 20260905200301 | 32 | 155 | 14.5 | 14.5 | 0.00 | 0.00 | 0.00 | 46 | 1012.9 |
| 20260905195759 | 32 | 161 | 14.5 | 14.5 | 0.00 | 0.00 | 0.00 | 46 | 1012.9 |
| 20260905195254 | 32 | 162 | 8.0 | 9.7 | 0.00 | 0.00 | 0.00 | 45 | 1012.9 |
| 20260905194749 | 32 | 102 | 11.3 | 12.9 | 0.00 | 0.00 | 0.00 | 48 | 1012.7 |
| 20260905194248 | 32 | 74 | 9.7 | 11.3 | 0.00 | 0.00 | 0.00 | 47 | 1013.2 |
| 20260905193743 | 33 | 164 | 9.7 | 11.3 | 0.00 | 0.00 | 0.00 | 48 | 1013.1 |
| 20260905193238 | 32 | 145 | 4.8 | 8.0 | 0.00 | 0.00 | 0.00 | 47 | 1013.2 |
| 20260905192733 | 32 | 94 | 11.3 | 14.5 | 0.00 | 0.00 | 0.00 | 47 | 1013.2 |
| 20260905192230 | 32 | 168 | 14.5 | 17.7 | 0.00 | 0.00 | 0.00 | 47 | 1013.1 |
| 20260905191729 | 32 | 137 | 11.3 | 12.9 | 0.00 | 0.00 | 0.00 | 47 | 1013.2 |
| 20260905191227 | 32 | 154 | 8.0 | 9.7 | 0.00 | 0.00 | 0.00 | 48 | 1013.4 |
| 20260905190726 | 32 | 158 | 8.0 | 9.7 | 0.00 | 0.00 | 0.00 | 47 | 1013.4 |
| 20260905190225 | 32 | 69 | 6.4 | 8.0 | 0.00 | 0.00 | 0.00 | 49 | 1013.5 |
| 20260905185724 | 32 | 128 | 16.1 | 17.7 | 0.00 | 0.00 | 0.00 | 46 | 1013.4 |
| 20260905185218 | 32 | 157 | 11.3 | 12.9 | 0.00 | 0.00 | 0.00 | 47 | 1013.5 |
| 20260905184714 | 31 | 149 | 11.3 | 12.9 | 0.00 | 0.00 | 0.00 | 48 | 1013.8 |
| 20260905184212 | 32 | 164 | 12.9 | 14.5 | 0.00 | 0.00 | 0.00 | 47 | 1013.7 |
| 20260905183712 | 31 | 74 | 8.0 | 11.3 | 0.00 | 0.00 | 0.00 | 50 | 1013.8 |
| 20260905183208 | 31 | 95 | 9.7 | 12.9 | 0.00 | 0.00 | 0.00 | 49 | 1014.1 |
| 20260905182706 | 31 | 121 | 9.7 | 12.9 | 0.00 | 0.00 | 0.00 | 51 | 1013.9 |
| 20260905182201 | 30 | 157 | 8.0 | 9.7 | 0.00 | 0.00 | 0.00 | 51 | 1014.2 |
| 20260905181656 | 30 | 72 | 9.7 | 12.9 | 0.00 | 0.00 | 0.00 | 52 | 1014.1 |
| 20260905181155 | 30 | 106 | 14.5 | 17.7 | 0.00 | 0.00 | 0.00 | 51 | 1014.1 |
| 20260905180650 | 31 | 131 | 9.7 | 12.9 | 0.00 | 0.00 | 0.00 | 51 | 1014.0 |
| 20260905180145 | 30 | 101 | 14.5 | 16.1 | 0.00 | 0.00 | 0.00 | 49 | 1014.2 |
| 20260905175644 | 30 | 162 | 9.7 | 12.9 | 0.00 | 0.00 | 0.00 | 51 | 1014.3 |
| 20260905175140 | 30 | 120 | 8.0 | 12.9 | 0.00 | 0.00 | 0.00 | 53 | 1014.1 |
| 20260905174636 | 30 | 138 | 9.7 | 11.3 | 0.00 | 0.00 | 0.00 | 52 | 1014.2 |
| 20260905174131 | 30 | 119 | 9.7 | 11.3 | 0.00 | 0.00 | 0.00 | 53 | 1014.4 |
| 20260905173626 | 30 | 155 | 14.5 | 16.1 | 0.00 | 0.00 | 0.00 | 53 | 1014.6 |
| 20260905173122 | 30 | 142 | 11.3 | 14.5 | 0.00 | 0.00 | 0.00 | 53 | 1014.8 |
| 20260905172615 | 30 | 164 | 6.4 | 8.0 | 0.00 | 0.00 | 0.00 | 55 | 1014.4 |
| 20260905172110 | 29 | 129 | 11.3 | 12.9 | 0.00 | 0.00 | 0.00 | 54 | 1014.3 |
| 20260905171607 | 29 | 150 | 8.0 | 11.3 | 0.00 | 0.00 | 0.00 | 56 | 1014.1 |
| 20260905171102 | 28 | 85 | 9.7 | 12.9 | 0.00 | 0.00 | 0.00 | 55 | 1014.4 |
| 20260905170559 | 29 | 83 | 8.0 | 9.7 | 0.00 | 0.00 | 0.00 | 55 | 1014.1 |
| 20260905170054 | 28 | 155 | 6.4 | 8.0 | 0.00 | 0.00 | 0.00 | 56 | 1014.4 |
| 20260905165548 | 28 | 149 | 11.3 | 14.5 | 0.00 | 0.00 | 0.00 | 56 | 1014.3 |
| 20260905165038 | 28 | 141 | 9.7 | 12.9 | 0.00 | 0.00 | 0.00 | 57 | 1014.2 |
| 20260905164538 | 28 | 166 | 12.9 | 14.5 | 0.00 | 0.00 | 0.00 | 57 | 1014.2 |
| 20260905164032 | 28 | 156 | 11.3 | 14.5 | 0.00 | 0.00 | 0.00 | 56 | 1014.3 |
| 20260905163529 | 28 | 121 | 16.1 | 20.9 | 0.00 | 0.00 | 0.00 | 56 | 1014.4 |
| 20260905163025 | 28 | 158 | 11.3 | 11.3 | 0.00 | 0.00 | 0.00 | 56 | 1014.2 |
| 20260905162520 | 28 | 155 | 14.5 | 17.7 | 0.00 | 0.00 | 0.00 | 57 | 1014.3 |
| 20260905162014 | 28 | 119 | 11.3 | 14.5 | 0.00 | 0.00 | 0.00 | 57 | 1014.3 |
| 20260905161509 | 28 | 146 | 16.1 | 17.7 | 0.00 | 0.00 | 0.00 | 56 | 1014.3 |
| 20260905161006 | 27 | 134 | 17.7 | 22.5 | 0.00 | 0.00 | 0.00 | 58 | 1014.3 |
| 20260905160500 | 28 | 115 | 8.0 | 9.7 | 0.00 | 0.00 | 0.00 | 60 | 1014.4 |
| 20260905155959 | 28 | 122 | 11.3 | 12.9 | 0.00 | 0.00 | 0.00 | 57 | 1014.9 |
| 20260905155454 | 28 | 152 | 6.4 | 8.0 | 0.00 | 0.00 | 0.00 | 58 | 1014.9 |
| 20260905154953 | 28 | 116 | 3.2 | 3.2 | 0.00 | 0.00 | 0.00 | 58 | 1014.5 |
| 20260905154448 | 27 | 89 | 3.2 | 3.2 | 0.00 | 0.00 | 0.00 | 61 | 1014.5 |
| 20260905153944 | 27 | 89 | 8.0 | 11.3 | 0.00 | 0.00 | 0.00 | 62 | 1014.3 |
| 20260905153440 | 27 | 144 | 8.0 | 9.7 | 0.00 | 0.00 | 0.00 | 63 | 1014.1 |
| 20260905152939 | 27 | 153 | 8.0 | 11.3 | 0.00 | 0.00 | 0.00 | 62 | 1014.4 |